GLOBALSTAR M004 (25163 NORAD) Tracking and Keplerian Element Data

This shows tracking and keplerian element data for the satellite.

Feedback or suggestion? Click here.




ElementValue
Catalog25163
NameGLOBALSTAR M004
Epoch Orbit28518
Epoch Day354.09156807
Epoch Year2025
RAAN206.997
Inclination51.9979
Eccentricity0.0003243
Argument of Perigee3.5455
Mean Anonmoly163.4679
Mean Motion12.63411087
Decay Rate-8E-07
L11 25163U 98008B 25354.09156807 -.00000080 00000+0 13501-3 0 9998
L22 25163 51.9979 206.9970 0003243 3.5455 163.4679 12.63411087285189



Live tracking and technical data element details for GLOBALSTAR M004 (NORAD 25163). GLOBALSTAR M004 can be tracked NOW for your location showing map with azimuth and elevation plus other details from your city location.







IsCatalogInMostPopularTable: catalog: 25163, numindb: 381
Update: records affected: 1



GetName: 25163 GLOBALSTAR M004

Hit Count: updated at: Thu, 21 May 2026 12:04:40 GMT